Location: Hartford
(41.7640°N, 72.6860°W)
Time: 02:44:10
(UTC-04:00)

Amateur Radio Satellites - All Passes

Search period start: 28 July 2017 02:14
Search period end: 29 July 2017 02:14
Location: Hartford, 41.7640°N, 72.6860°W

Satellite Date Start Highest point End Downlink Frequencies (MHz)
Time Altitude Azimuth
Gurwin Techsat 1B 28 Jul 02:19:53 02:24:57 43° 99° (E) 02:30:00 435.225
RS-15 28 Jul 02:22:07 02:32:32 37° 255° (WSW) 02:42:31 29.354- 29.394
AO-7 28 Jul 02:32:39 02:33:31 10° 85° (E) 02:34:24 .
ISS 28 Jul 02:33:25 02:36:39 65° 218° (SW) 02:39:52 437.550
DX 1 28 Jul 02:47:32 02:48:48 11° 270° (W) 02:50:05 434.975-435.025
BEESAT 28 Jul 02:54:03 02:58:45 62° 73° (ENE) 03:03:29 436.000
PCSat 28 Jul 03:06:34 03:07:51 11° 101° (ESE) 03:09:08 145.827
Oscar 19 28 Jul 03:07:44 03:12:37 44° 290° (WNW) 03:17:30 437.125/150
ITUPSAT 1 28 Jul 03:09:25 03:14:12 86° 79° (E) 03:19:01 437.325
BUGSAT 1 28 Jul 03:12:10 03:13:44 12° 298° (WNW) 03:15:17 437.445
nSIGHT-1 28 Jul 03:12:58 03:15:40 25° 225° (SW) 03:18:22 .
MOZHAYETS 4 28 Jul 03:26:24 03:30:59 85° 259° (WSW) 03:35:35
ITAMSAT 1 28 Jul 03:27:43 03:31:40 22° 94° (E) 03:35:35 435.822/435.867
KKS-1 28 Jul 03:45:37 03:48:33 17° 64° (ENE) 03:51:29 437.445
Gurwin Techsat 1B 28 Jul 04:00:22 04:04:38 25° 296° (WNW) 04:08:54 435.225
STARS 28 Jul 04:07:19 04:09:09 12° 61° (ENE) 04:10:58 437.465
CUBESAT XI-V 28 Jul 04:09:48 04:14:14 53° 73° (ENE) 04:18:44 437.345
AO-7 28 Jul 04:19:33 04:27:52 63° 104° (ESE) 04:36:05 .
YUBILEINY 28 Jul 04:31:43 04:38:48 26° 66° (ENE) 04:45:49 435.215
BEESAT 28 Jul 04:34:27 04:36:56 14° 269° (W) 04:39:25 436.000
SO-50 28 Jul 04:35:17 04:37:26 13° 109° (ESE) 04:39:36 436.795
PCSat 28 Jul 04:44:56 04:50:21 85° 116° (ESE) 04:55:49 145.827
ITAMSAT 1 28 Jul 05:06:22 05:11:21 47° 290° (WNW) 05:16:17 435.822/435.867
KKS-1 28 Jul 05:20:23 05:24:43 48° 260° (W) 05:29:04 437.445
STARS 28 Jul 05:40:28 05:44:53 71° 257° (WSW) 05:49:19 437.465
CUBESAT XI-V 28 Jul 05:49:14 05:51:55 15° 269° (W) 05:54:39 437.345
XW-2B 28 Jul 05:55:12 05:56:34 12° 91° (E) 05:57:55 145.730 - 145.750
DOVE 4 28 Jul 05:59:00 06:04:03 47° 98° (E) 06:08:51 437.250
NUDT-PHONESAT 28 Jul 06:06:50 06:08:11 12° 91° (E) 06:09:31 437.300
XW-2C 28 Jul 06:11:31 06:14:16 19° 94° (E) 06:17:00 145.795 - 145.815
SO-50 28 Jul 06:12:49 06:17:20 68° 306° (NW) 06:21:50 436.795
AO-7 28 Jul 06:13:01 06:20:06 32° 303° (WNW) 06:27:10 .
KAITUO 1B 28 Jul 06:24:58 06:27:50 21° 94° (E) 06:30:42 145.475/437.950
YUBILEINY 28 Jul 06:27:41 06:36:23 69° 267° (W) 06:44:59 435.215
PCSat 28 Jul 06:30:48 06:34:27 18° 318° (NW) 06:38:07 145.827
LilacSat-2 28 Jul 06:38:11 06:41:49 42° 99° (E) 06:45:27 437.200
STRAND 1 28 Jul 06:42:06 06:46:43 34° 68° (ENE) 06:51:20 437.568
XW-2F 28 Jul 06:45:52 06:49:31 47° 99° (E) 06:53:10 145.980 - 146.000
XW-2D 28 Jul 07:17:07 07:20:51 61° 285° (WNW) 07:24:34 145.860 - 145.880
CUTE-I 28 Jul 07:17:46 07:23:09 82° 103° (ESE) 07:28:29 437.470
XW-2B 28 Jul 07:27:22 07:31:00 47° 286° (WNW) 07:34:38 145.730 - 145.750
HO-68 28 Jul 07:36:36 07:43:13 39° 98° (E) 07:49:48 435.675
DOVE 4 28 Jul 07:37:20 07:41:21 23° 296° (WNW) 07:45:15 437.250
NUDT-PHONESAT 28 Jul 07:38:46 07:42:17 44° 287° (WNW) 07:45:49 437.300
XW-2C 28 Jul 07:45:12 07:48:28 28° 289° (WNW) 07:51:44 145.795 - 145.815
CUTE 1.7 + AOD 2 28 Jul 07:45:59 07:50:01 41° 98° (E) 07:54:03 437.475
SEEDS 28 Jul 07:51:42 07:55:26 29° 96° (E) 07:59:09 437.485
SO-50 28 Jul 07:56:51 07:58:38 12° 325° (NW) 08:00:25 436.795
KAITUO 1B 28 Jul 07:58:40 08:01:48 26° 290° (WNW) 08:04:56 145.475/437.950
CUBEBUG 2 28 Jul 08:01:42 08:05:26 30° 96° (E) 08:09:05 437.445
XW-2A 28 Jul 08:02:28 08:05:32 33° 98° (E) 08:08:35 145.665 - 145.685
FO-29 28 Jul 08:07:18 08:13:23 26° 59° (ENE) 08:19:31 435.910
LilacSat-2 28 Jul 08:13:43 08:15:44 14° 294° (WNW) 08:17:44 437.200
STRAND 1 28 Jul 08:21:27 08:25:53 29° 264° (W) 08:30:21 437.568
XW-2F 28 Jul 08:21:35 08:23:14 13° 295° (WNW) 08:24:52 145.980 - 146.000
AAUSAT CUBESAT 2 28 Jul 08:24:43 08:28:28 31° 96° (E) 08:32:12 437.432
YUBILEINY 28 Jul 08:28:25 08:31:23 12° 287° (WNW) 08:34:21 435.215
TIGRISAT 28 Jul 08:36:30 08:38:04 12° 61° (ENE) 08:39:38 435.000
UWE-3 28 Jul 08:52:01 08:56:10 65° 101° (E) 09:00:16 435.000/436.395/437.385
ZACube-1 28 Jul 08:57:53 09:01:48 40° 98° (E) 09:05:41 437.345
CUTE-I 28 Jul 08:59:41 09:02:28 14° 301° (WNW) 09:05:16 437.470
Oscar 11 28 Jul 09:17:30 09:21:40 46° 99° (E) 09:25:49 .
CUTE 1.7 + AOD 2 28 Jul 09:22:39 09:25:32 18° 294° (WNW) 09:28:26 437.475
HO-68 28 Jul 09:24:20 09:30:56 41° 296° (WNW) 09:37:30 435.675
UNISAT 6 28 Jul 09:26:40 09:30:58 40° 71° (ENE) 09:35:13 437.425
SEEDS 28 Jul 09:27:35 09:30:58 24° 292° (WNW) 09:34:21 437.485
AO-73 28 Jul 09:35:46 09:39:55 82° 284° (WNW) 09:44:02 145.935
XW-2A 28 Jul 09:36:21 09:37:58 13° 294° (WNW) 09:39:35 145.665 - 145.685
CUBEBUG 2 28 Jul 09:38:36 09:41:54 22° 293° (WNW) 09:45:08 437.445
NO-84 28 Jul 09:39:30 09:42:04 27° 130° (SE) 09:44:46 435.350 FM
FO-29 28 Jul 09:49:55 09:57:37 75° 257° (WSW) 10:05:32 435.910
PRISM 28 Jul 09:54:22 09:58:25 65° 74° (ENE) 10:02:31 437.425
AAUSAT CUBESAT 2 28 Jul 10:00:31 10:03:45 22° 292° (WNW) 10:06:58 437.432
EO-88 28 Jul 10:04:18 10:07:09 21° 95° (E) 10:09:58 145.990 - 145.960
TIGRISAT 28 Jul 10:09:30 10:14:07 79° 256° (WSW) 10:18:42 435.000
M-CUBED/EXP-1 PRIME 28 Jul 10:29:00 10:32:43 86° 247° (WSW) 10:36:48 437.505
DELFI C3 28 Jul 10:29:26 10:33:27 76° 101° (E) 10:37:27 145.870
UWE-3 28 Jul 10:30:44 10:32:03 11° 298° (WNW) 10:33:23 435.000/436.395/437.385
ZACube-1 28 Jul 10:35:03 10:37:46 17° 294° (WNW) 10:40:28 437.345
DUCHIFAT 1 28 Jul 10:38:31 10:39:20 10° 61° (ENE) 10:40:10 145.980
POLYITAN 1 28 Jul 10:44:38 10:47:12 16° 64° (ENE) 10:49:45 437.675
Oscar 11 28 Jul 10:54:40 10:57:26 17° 295° (WNW) 11:00:11 .
QB50P2 28 Jul 10:56:59 11:00:21 23° 67° (ENE) 11:03:42 145.880/145.840
AIST 2D 28 Jul 11:02:28 11:05:48 46° 75° (ENE) 11:09:10 435.315
UNISAT 6 28 Jul 11:04:22 11:07:48 20° 267° (W) 11:11:11 437.425
NANOSAT C BR1 28 Jul 11:05:18 11:08:39 23° 67° (ENE) 11:12:01 145.865
EO-79 28 Jul 11:07:25 11:11:00 27° 68° (ENE) 11:14:35 145.935-145.965
NO-84 28 Jul 11:16:47 11:19:27 27° 330° (NNW) 11:22:18 435.350 FM
LO-87 28 Jul 11:29:47 11:33:00 30° 97° (E) 11:36:09 145.935 - 145.965
PRISM 28 Jul 11:33:39 11:34:06 10° 270° (W) 11:34:34 437.425
EO-88 28 Jul 11:37:47 11:40:45 24° 290° (WNW) 11:43:43 145.990 - 145.960
FO-29 28 Jul 11:39:55 11:43:46 14° 276° (W) 11:47:40 435.910
AO-85 28 Jul 11:45:26 11:49:15 45° 118° (ESE) 11:53:01 145.980
PCSat 28 Jul 11:50:47 11:53:37 14° 38° (NE) 11:56:24 145.827
BEESAT 3 28 Jul 11:58:49 12:02:47 70° 120° (ESE) 12:06:48 437.485
Gurwin Techsat 1B 28 Jul 12:07:06 12:07:24 10° 56° (NE) 12:07:41 435.225
DUCHIFAT 1 28 Jul 12:10:08 12:14:22 76° 258° (WSW) 12:18:37 145.980
POLYITAN 1 28 Jul 12:18:27 12:22:34 48° 260° (W) 12:26:43 437.675
BUGSAT 1 28 Jul 12:24:16 12:28:17 43° 72° (ENE) 12:32:17 437.445
QB50P2 28 Jul 12:32:09 12:35:58 31° 263° (W) 12:39:47 145.880/145.840
ESTCUBE 1 28 Jul 12:32:48 12:37:21 84° 283° (WNW) 12:41:52 437.505/2401.250
NANOSAT C BR1 28 Jul 12:40:26 12:44:12 31° 263° (W) 12:47:59 145.865
EO-79 28 Jul 12:43:06 12:46:41 26° 264° (W) 12:50:18 145.935-145.965
Oscar 19 28 Jul 12:46:02 12:50:36 34° 68° (ENE) 12:55:12 437.125/150
BEESAT 2 28 Jul 12:47:08 12:51:07 77° 120° (ESE) 12:55:10 435.950
NO-84 28 Jul 12:57:28 12:57:54 10° 351° (N) 12:58:20 435.350 FM
DX 1 28 Jul 12:58:08 12:59:25 11° 90° (E) 13:00:41 434.975-435.025
VELOX 1 28 Jul 13:02:19 13:06:35 43° 99° (E) 13:10:48 145.980
LO-87 28 Jul 13:03:49 13:06:10 17° 293° (WNW) 13:08:31 145.935 - 145.965
SO-50 28 Jul 13:04:16 13:07:18 17° 40° (NE) 13:10:20 436.795
SPROUT 28 Jul 13:24:47 13:29:03 87° 290° (WNW) 13:33:18 437.525
AO-85 28 Jul 13:27:03 13:29:50 18° 316° (NW) 13:32:38 145.980
AO-7 28 Jul 13:29:27 13:35:11 21° 50° (NE) 13:40:55 .
50 SAT 28 Jul 13:31:17 13:34:28 34° 98° (E) 13:37:37 437.505
UKube-1 28 Jul 13:31:35 13:34:29 17° 93° (E) 13:37:22 .
PCSat 28 Jul 13:32:34 13:38:00 71° 59° (ENE) 13:43:24 145.827
BEESAT 3 28 Jul 13:38:27 13:40:48 15° 319° (NW) 13:43:10 437.485
Gurwin Techsat 1B 28 Jul 13:41:05 13:46:22 71° 73° (ENE) 13:51:41 435.225
BUGSAT 1 28 Jul 14:01:09 14:03:49 16° 267° (W) 14:06:29 437.445
Oscar 19 28 Jul 14:25:31 14:29:55 29° 264° (W) 14:34:21 437.125/150
BEESAT 2 28 Jul 14:27:12 14:29:22 14° 320° (NW) 14:31:34 435.950
DX 1 28 Jul 14:31:40 14:36:02 67° 286° (WNW) 14:40:22 434.975-435.025
RS-15 28 Jul 14:31:56 14:42:51 41° 107° (ESE) 14:53:55 29.354- 29.394
O/OREOS (USA 219) 28 Jul 14:34:23 14:38:43 53° 108° (ESE) 14:43:05 437.305
NO-84 28 Jul 14:35:27 14:36:44 11° 13° (NNE) 14:38:01 435.350 FM
VELOX 1 28 Jul 14:39:34 14:42:42 19° 295° (WNW) 14:45:49 145.980
SO-50 28 Jul 14:43:42 14:48:15 73° 239° (WSW) 14:52:49 436.795
ITAMSAT 1 28 Jul 14:45:36 14:50:18 35° 67° (ENE) 14:55:01 435.822/435.867
BEESAT 28 Jul 14:55:13 14:57:56 15° 91° (E) 15:00:40 436.000
50 SAT 28 Jul 15:05:06 15:06:52 14° 294° (WNW) 15:08:37 437.505
UKube-1 28 Jul 15:06:35 15:10:41 42° 289° (WNW) 15:14:45 .
ITUPSAT 1 28 Jul 15:10:20 15:13:58 21° 94° (E) 15:17:32 437.325
PCSat 28 Jul 15:17:33 15:20:46 16° 256° (WSW) 15:23:58 145.827
AO-7 28 Jul 15:18:24 15:26:46 84° 70° (ENE) 15:35:12 .
MOZHAYETS 4 28 Jul 15:21:44 15:25:14 21° 94° (E) 15:28:43
Gurwin Techsat 1B 28 Jul 15:24:00 15:26:49 14° 270° (W) 15:29:40 435.225
CUBESAT XI-V 28 Jul 16:07:37 16:09:47 13° 90° (E) 16:11:57 437.345
NO-84 28 Jul 16:11:42 16:15:04 32° 33° (NNE) 16:18:41 435.350 FM
O/OREOS (USA 219) 28 Jul 16:15:30 16:18:27 17° 306° (NW) 16:21:25 437.305
ITAMSAT 1 28 Jul 16:25:14 16:29:46 29° 264° (W) 16:34:19 435.822/435.867
BEESAT 28 Jul 16:31:24 16:36:04 57° 288° (WNW) 16:40:43 436.000
RS-15 28 Jul 16:42:38 16:54:47 65° 309° (NW) 17:07:07 29.354- 29.394
ITUPSAT 1 28 Jul 16:47:27 16:51:55 41° 290° (WNW) 16:56:21 437.325
XW-2C 28 Jul 16:55:14 16:55:54 10° 63° (ENE) 16:56:34 145.795 - 145.815
MOZHAYETS 4 28 Jul 16:58:17 17:02:29 37° 290° (WNW) 17:06:40
CUTE-I 28 Jul 17:01:59 17:05:39 19° 62° (ENE) 17:09:21 437.470
DOVE 4 28 Jul 17:03:52 17:08:37 47° 71° (ENE) 17:13:37 437.250
KAITUO 1B 28 Jul 17:07:12 17:08:07 11° 64° (ENE) 17:09:00 145.475/437.950
KKS-1 28 Jul 17:11:05 17:15:02 30° 96° (E) 17:18:56 437.445
AO-7 28 Jul 17:14:37 17:20:25 20° 269° (W) 17:26:18 .
LilacSat-2 28 Jul 17:20:41 17:23:37 22° 69° (ENE) 17:26:35 437.200
XW-2F 28 Jul 17:27:17 17:30:16 23° 69° (ENE) 17:33:16 145.980 - 146.000
STARS 28 Jul 17:30:15 17:33:30 20° 94° (E) 17:36:43 437.465
YUBILEINY 28 Jul 17:33:38 17:40:51 30° 82° (E) 17:48:04 435.215
CUBESAT XI-V 28 Jul 17:42:55 17:47:34 65° 286° (WNW) 17:52:12 437.345
NO-84 28 Jul 17:49:01 17:52:35 37° 228° (SW) 17:56:23 435.350 FM
XW-2D 28 Jul 17:58:07 18:01:48 62° 75° (ENE) 18:05:31 145.860 - 145.880
HO-68 28 Jul 18:05:55 18:12:00 31° 61° (ENE) 18:18:05 435.675
XW-2B 28 Jul 18:08:15 18:11:59 80° 79° (E) 18:15:45 145.730 - 145.750
NUDT-PHONESAT 28 Jul 18:17:35 18:21:15 78° 76° (ENE) 18:24:55 437.300
XW-2C 28 Jul 18:25:54 18:29:35 58° 260° (W) 18:33:18 145.795 - 145.815
XW-2A 28 Jul 18:35:18 18:36:51 13° 66° (ENE) 18:38:24 145.665 - 145.685
KAITUO 1B 28 Jul 18:38:01 18:41:37 54° 260° (W) 18:45:15 145.475/437.950
CUTE 1.7 + AOD 2 28 Jul 18:38:53 18:42:31 29° 70° (ENE) 18:46:11 437.475
Tancredo 1 28 Jul 18:39:09 18:41:55 40° 140° (SE) 18:44:43 437.200
CUTE-I 28 Jul 18:39:54 18:45:12 61° 258° (WSW) 18:50:33 437.470
DOVE 4 28 Jul 18:42:46 18:46:32 21° 269° (W) 18:50:26 437.250
SEEDS 28 Jul 18:43:54 18:47:04 21° 67° (ENE) 18:50:15 437.485
KKS-1 28 Jul 18:47:45 18:51:28 26° 293° (WNW) 18:55:09 437.445
LilacSat-2 28 Jul 18:54:40 18:57:47 24° 265° (W) 19:00:55 437.200
STRAND 1 28 Jul 18:55:01 18:56:00 10° 88° (E) 18:56:58 437.568
CUBEBUG 2 28 Jul 18:59:33 19:03:32 29° 69° (ENE) 19:07:26 437.445
RS-15 28 Jul 19:00:13 19:10:23 28° 339° (NNW) 19:20:28 29.354- 29.394
XW-2F 28 Jul 19:01:20 19:04:19 23° 265° (W) 19:07:18 145.980 - 146.000
STARS 28 Jul 19:05:53 19:09:57 37° 290° (WNW) 19:13:59 437.465
ISS 28 Jul 19:13:27 19:16:22 31° 137° (SE) 19:19:18 437.550
AAUSAT CUBESAT 2 28 Jul 19:15:20 19:18:29 22° 67° (ENE) 19:21:40 437.432
YUBILEINY 28 Jul 19:28:19 19:37:01 61° 282° (WNW) 19:45:46 435.215
UWE-3 28 Jul 19:48:33 19:52:58 54° 73° (ENE) 19:57:17 435.000/436.395/437.385
nSIGHT-1 28 Jul 19:51:26 19:54:40 81° 144° (SE) 19:57:54 .
HO-68 28 Jul 19:52:23 19:59:22 54° 259° (W) 20:06:24 435.675
ZACube-1 28 Jul 19:53:35 19:57:33 34° 71° (ENE) 20:01:27 437.345
XW-2A 28 Jul 20:06:09 20:09:16 35° 262° (W) 20:12:24 145.665 - 145.685
Oscar 11 28 Jul 20:12:22 20:16:18 36° 71° (ENE) 20:20:14 .
Tancredo 1 28 Jul 20:14:52 20:17:23 25° 336° (NNW) 20:19:55 437.200
CUTE 1.7 + AOD 2 28 Jul 20:15:01 20:18:21 23° 266° (W) 20:21:43 437.475
BEESAT 3 28 Jul 20:15:23 20:19:13 42° 52° (NE) 20:22:59 437.485
AO-85 28 Jul 20:15:28 20:19:30 44° 53° (NE) 20:23:48 145.980
SEEDS 28 Jul 20:18:50 20:22:33 32° 264° (W) 20:26:19 437.485
STRAND 1 28 Jul 20:30:41 20:35:50 87° 283° (WNW) 20:40:55 437.568
AO-73 28 Jul 20:30:49 20:35:12 78° 75° (ENE) 20:39:30 145.935
CUBEBUG 2 28 Jul 20:36:01 20:40:04 29° 264° (W) 20:44:02 437.445
EO-88 28 Jul 20:44:25 20:45:08 10° 64° (ENE) 20:45:51 145.990 - 145.960
ISS 28 Jul 20:49:49 20:52:48 34° 334° (NNW) 20:55:50 437.550
AAUSAT CUBESAT 2 28 Jul 20:50:07 20:53:46 31° 264° (W) 20:57:27 437.432
FO-29 28 Jul 21:02:36 21:06:37 16° 85° (E) 21:10:24 435.910
BEESAT 2 28 Jul 21:04:31 21:08:29 48° 53° (NE) 21:12:22 435.950
DELFI C3 28 Jul 21:14:44 21:18:26 41° 72° (ENE) 21:22:12 145.870
RS-15 28 Jul 21:18:42 21:28:28 26° 15° (NNE) 21:37:56 29.354- 29.394
UWE-3 28 Jul 21:27:15 21:29:42 14° 269° (W) 21:32:07 435.000/436.395/437.385
nSIGHT-1 28 Jul 21:28:49 21:31:23 21° 342° (NNW) 21:33:56 .
ZACube-1 28 Jul 21:30:28 21:33:52 22° 266° (W) 21:37:15 437.345
YUBILEINY 28 Jul 21:32:48 21:35:57 12° 305° (NW) 21:39:07 435.215
Oscar 11 28 Jul 21:49:22 21:52:31 20° 267° (W) 21:55:42 .
Tancredo 1 28 Jul 21:52:09 21:53:31 12° 356° (N) 21:54:53 437.200
BEESAT 3 28 Jul 21:53:49 21:56:27 17° 249° (WSW) 21:59:04 437.485
AO-85 28 Jul 21:56:31 21:59:39 20° 247° (WSW) 22:02:56 145.980
TIGRISAT 28 Jul 22:01:37 22:04:47 20° 93° (E) 22:07:53 435.000
LO-87 28 Jul 22:07:05 22:09:03 14° 66° (ENE) 22:11:02 145.935 - 145.965
STRAND 1 28 Jul 22:12:25 22:14:12 12° 302° (WNW) 22:15:59 437.568
EO-88 28 Jul 22:14:47 22:18:19 54° 259° (W) 22:21:54 145.990 - 145.960
ISS 28 Jul 22:28:00 22:30:00 15° 354° (N) 22:32:00 437.550
BEESAT 2 28 Jul 22:43:22 22:45:50 16° 250° (WSW) 22:48:17 435.950
FO-29 28 Jul 22:45:39 22:52:40 80° 286° (WNW) 22:58:46 435.910
DELFI C3 28 Jul 22:51:13 22:53:25 14° 269° (W) 22:55:37 145.870
UNISAT 6 28 Jul 22:54:18 22:58:38 85° 103° (ESE) 23:02:53 437.425
O/OREOS (USA 219) 28 Jul 23:06:23 23:08:27 13° 51° (NE) 23:10:31 437.305
nSIGHT-1 28 Jul 23:06:48 23:08:40 14° 2° (N) 23:10:31 .
PRISM 28 Jul 23:10:18 23:14:30 79° 283° (WNW) 23:18:39 437.425
Tancredo 1 28 Jul 23:27:43 23:29:47 17° 16° (NNE) 23:31:52 437.200
ESTCUBE 1 28 Jul 23:32:09 23:36:37 90° 243° (WSW) 23:41:09 437.505/2401.250
RS-15 28 Jul 23:32:37 23:44:34 56° 46° (NE) 23:55:52 29.354- 29.394
TIGRISAT 28 Jul 23:37:40 23:41:34 35° 290° (WNW) 23:45:25 435.000
LO-87 28 Jul 23:38:44 23:42:09 38° 262° (W) 23:45:35 145.935 - 145.965
M-CUBED/EXP-1 PRIME 28 Jul 23:40:46 23:45:25 70° 107° (ESE) 23:50:03 437.505
DX 1 28 Jul 23:54:23 23:55:44 11° 60° (ENE) 23:57:05 434.975-435.025
DUCHIFAT 1 28 Jul 23:54:56 23:57:32 16° 92° (E) 00:00:07 145.980
VELOX 1 28 Jul 23:59:32 00:03:38 39° 71° (ENE) 00:07:47 145.980
AIST 2D 28 Jul 23:59:59 00:03:27 56° 100° (E) 00:06:53 435.315
POLYITAN 1 29 Jul 00:03:13 00:06:42 25° 95° (E) 00:10:09 437.675
50 SAT 29 Jul 00:03:57 00:05:48 14° 66° (ENE) 00:07:39 437.505
ISS 29 Jul 00:05:03 00:07:25 18° 14° (NNE) 00:09:47 437.550
QB50P2 29 Jul 00:16:13 00:20:10 38° 98° (E) 00:24:05 145.880/145.840
SPROUT 29 Jul 00:17:46 00:22:02 72° 75° (ENE) 00:26:20 437.525
NANOSAT C BR1 29 Jul 00:23:53 00:27:49 38° 98° (E) 00:31:42 145.865
UKube-1 29 Jul 00:26:36 00:29:19 16° 64° (ENE) 00:32:01 .
EO-79 29 Jul 00:26:37 00:30:40 46° 99° (E) 00:34:41 145.935-145.965
FO-29 29 Jul 00:32:41 00:36:24 15° 307° (NW) 00:39:54 435.910
nSIGHT-1 29 Jul 00:43:05 00:45:53 26° 22° (NNE) 00:48:41 .
O/OREOS (USA 219) 29 Jul 00:43:55 00:48:26 77° 248° (WSW) 00:52:55 437.305
Oscar 19 29 Jul 00:59:31 01:00:56 11° 88° (E) 01:02:22 437.125/150
Tancredo 1 29 Jul 01:02:36 01:05:32 82° 38° (NE) 01:08:28 437.200
M-CUBED/EXP-1 PRIME 29 Jul 01:16:35 01:19:15 15° 303° (WNW) 01:21:57 437.505
DX 1 29 Jul 01:26:55 01:31:16 76° 257° (WSW) 01:35:41 434.975-435.025
DUCHIFAT 1 29 Jul 01:29:27 01:33:24 42° 288° (WNW) 01:37:19 145.980
50 SAT 29 Jul 01:35:07 01:38:13 33° 262° (W) 01:41:20 437.505
VELOX 1 29 Jul 01:37:01 01:40:13 19° 267° (W) 01:43:28 145.980
POLYITAN 1 29 Jul 01:38:52 01:42:26 27° 291° (WNW) 01:45:58 437.675
BUGSAT 1 29 Jul 01:40:42 01:44:47 71° 102° (ESE) 01:48:47 437.445
ISS 29 Jul 01:41:06 01:44:21 67° 33° (NNE) 01:47:36 437.550
RS-15 29 Jul 01:45:40 01:56:53 49° 251° (WSW) 02:07:35 29.354- 29.394
QB50P2 29 Jul 01:52:44 01:55:40 19° 294° (WNW) 01:58:35 145.880/145.840
Gurwin Techsat 1B 29 Jul 01:57:31 02:02:00 27° 95° (E) 02:06:29 435.225
NANOSAT C BR1 29 Jul 02:00:19 02:03:15 19° 294° (WNW) 02:06:09 145.865
UKube-1 29 Jul 02:00:47 02:04:56 48° 260° (W) 02:09:09 .
BEESAT 29 Jul 02:01:42 02:05:04 20° 64° (ENE) 02:08:26 436.000
EO-79 29 Jul 02:03:28 02:06:03 16° 296° (WNW) 02:08:37 145.935-145.965
